User: anonymous   Login
Location: Newark
(55.5030°N, 22.7200°E)
Time: 22:11:54
(UTC+00:00)
Language:

SR - Orbit

View from above orbital plane
View from above orbital plane
View from above satellite
View from above satellite

Ground track
Ground track

The orbit data is extracted from the following two-line orbital elements,

1    46U 60007B   20145.24233169 -.00000052 +00000-0 +12885-4 0  9991
2    46 066.6895 111.9270 0206292 151.1347 210.1363 14.49295491135605
Epoch (UTC): 24 May 2020 05:48:57
Eccentricity: 0.0206292
inclination: 66.6895°
perigee height: 581 km
apogee height: 874 km
right ascension of ascending node: 111.9270°
argument of perigee: 151.1347°
revolutions per day: 14.49295491
mean anomaly at epoch: 210.1363°
orbit number at epoch: 13560

The dashed part of the orbit path shows where the satellite is in the earth's shadow,  

DLR